[ hide orbit diagram ]
For accurate long-term ephemerides, please instead use our Horizons system.This orbit viewer was implemented using two-body methods, and hence should not be used for determining accurate long-term trajectories (over several years or decades) or planetary encounter circumstances.
[ revert to old Java-based viewer ]
Orbital Elements at Epoch 2458600.5 (2019-Apr-27.0) TDB
Reference: JPL 11 (heliocentric ecliptic J2000)
Element | Value | Uncertainty (1-sigma) | Units |
e | .1804698258577274 | 6.3282e-08 | |
a | 2.546559353026698 | 2.2753e-08 | au |
q | 2.086982230049603 | 1.6374e-07 | au |
i | 3.10010955840929 | 7.9066e-06 | deg |
node | 355.0066636318485 | 0.00011375 | deg |
peri | 341.084603354415 | 0.000116 | deg |
M | 350.6688759484076 | 2.244e-05 | deg |
tp | 2458638.973402271562 (2019-Jun-04.47340227) | 9.2393e-05 | TDB |
period | 1484.325440448808 4.06 | 1.9893e-05 5.446e-08 | d yr |
n | .2425344134040771 | 3.2505e-09 | deg/d |
Q | 3.006136476003793 | 2.6859e-08 | au |
|
| | Orbit Determination Parameters
Additional Information
|
[ show covariance matrix ]
Physical Parameter Table
Parameter |
Symbol |
Value |
Units |
Sigma |
Reference |
Notes |
absolute magnitude |
H |
17.1 |
|
n/a |
MPO450227 |
|
|
305152 (2007 VS209) Discovered 2007-Nov-07 by Spacewatch at Kitt Peak |
Reference: 20111110/Numbers.arc | Last Updated: 2011-11-14 |
|
[ show close-approach data ]
|